Hauptseite
METAR-TAF:

METAR-TAF

Flughäfen :

Bohrplattform

Troll A, Norwegen

Breite: 60-38-42N, Länge: 3-43-29E, Höhe: 20 m

Beobachtung

Neuester Wetterbericht von vor 21 Minuten, um 14:20 UTC
Wind 26 kt aus Ost
Temperatur 17°C
Luftfeuchtigkeit 27%
Luftdruck 1009 hPa
Sichtweite 10 km oder mehr

METAR: ENQA 241420Z AUTO 10026KT 9999NDV BKN110/// 17/M02 Q1009 W07/S3

Zeit: 16:41 (14:41 UTC)


TAF: fehlend

Wetterbeobachtungen und Prognosen von mehr als 4000 Flughäfen (METAR und TAF Bericht).

Die verfügbaren Stationen werden durch gelbe und rote Markierungen auf der Karte dargestellt.

Führen Sie die Maus auf sie, um den Namen der Station zu sehen.

Darauf klicken, um die Beobachtung von Wetterbeobachtungen und Prognosen zu sehen.

Um die Karte zu ändern : klicken Sie auf den grünen Tasten mit einem schwarzen Kreuz Zum Vergrößern, auf den grünen Button mit einem Gedankenstrich zu verkleinern, oder auf die grünen Pfeile für benachbarte Karten.


METAR-TAF: